Weather History for Burlington, CO

Change the Weather History Date:

Wednesday, March 12, 2014

  Actual Average Record
Temperature  
Mean Temperature 37 °F 39 °F  
Max Temperature 53 °F 53 °F 85 °F (1910)
Min Temperature 20 °F 24 °F -8 °F (1932)
Degree Days  
Heating Degree Days 28    
Moisture  
Dew Point 14 °F    
Average Humidity 52    
Maximum Humidity 88    
Minimum Humidity 17    
Precipitation  
Precipitation 0.00 in 0.03 in 0.21 in (1993)
Month to date precipitation 0.01 0.31  
Year to date precipitation 0.71 1.11  
Sea Level Pressure  
Sea Level Pressure 30.31 in    
Wind  
Wind Speed 10 mph (WNW)    
Max Wind Speed 18 mph    
Max Gust Speed 24 mph    
Visibility 10 miles    
Events      
T = Trace of Precipitation, MM = Missing Value Source: NWS Daily Summary

Daily Weather History Graph

Daily Weather History Graph

Search for Another Location

Airport:

Trip Planner

Search our weather history database for the weather conditions in past years. The results will help you decide how hot, cold, wet, or windy it might be!

Date:

Astronomy

Mar. 12, 2014 Rise Set
Actual Time 7:05 AM MDT 6:53 PM MDT
Civil Twilight 6:38 AM MDT 7:19 PM MDT
Nautical Twilight 6:07 AM MDT 7:50 PM MDT
Astronomical Twilight 5:36 AM MDT 8:22 PM MDT
Moon 3:26 PM MDT (3/12) 4:36 AM MDT (3/12)
Length of Visible Light 12h 41m
Length of Day
11h 48m
Waxing Gibbous, 86% of the Moon is Illuminated
Mar 12
Waxing Gibbous
Mar 16
Full
Mar 23
Last Quarter
Mar 30
New
Apr 7
First Quarter

Hourly Weather History & Observations

Time (MDT) Temp. Windchill Dew Point Humidity Pressure Visibility Wind Dir Wind Speed Gust Speed Precip Events Conditions
12:53 AM 24.1 °F 15.2 °F 21.0 °F 88% 30.37 in 10.0 mi WNW 8.1 mph - N/A   Clear
1:53 AM 24.1 °F 14.4 °F 19.9 °F 84% 30.37 in 10.0 mi WNW 9.2 mph - N/A   Clear
2:53 AM 23.0 °F 11.1 °F 18.0 °F 81% 30.37 in 10.0 mi WNW 12.7 mph - N/A   Clear
3:53 AM 21.0 °F 9.9 °F 17.1 °F 85% 30.36 in 10.0 mi WNW 10.4 mph - N/A   Clear
4:53 AM 21.9 °F 10.4 °F 17.1 °F 82% 30.38 in 10.0 mi NW 11.5 mph - N/A   Clear
5:53 AM 21.0 °F 11.4 °F 16.0 °F 81% 30.39 in 10.0 mi WNW 8.1 mph - N/A   Clear
6:53 AM 21.0 °F 9.9 °F 16.0 °F 81% 30.39 in 10.0 mi WNW 10.4 mph - N/A   Clear
7:53 AM 23.0 °F 13.1 °F 17.1 °F 78% 30.40 in 10.0 mi WNW 9.2 mph - N/A   Clear
8:53 AM 30.0 °F 19.1 °F 21.0 °F 69% 30.40 in 10.0 mi WNW 15.0 mph - N/A   Clear
9:53 AM 36.0 °F 26.3 °F 23.0 °F 59% 30.39 in 10.0 mi WNW 16.1 mph - N/A   Clear
10:53 AM 41.0 °F 32.2 °F 17.1 °F 38% 30.37 in 10.0 mi WNW 18.4 mph - N/A   Clear
11:53 AM 43.0 °F 36.0 °F 14.0 °F 31% 30.34 in 10.0 mi NW 13.8 mph 24.2 mph N/A   Clear
12:53 PM 45.0 °F 38.9 °F 12.9 °F 27% 30.32 in 10.0 mi NW 12.7 mph - N/A   Clear
1:53 PM 48.0 °F - 10.0 °F 22% 30.28 in 10.0 mi WNW 15.0 mph 24.2 mph N/A   Clear
2:53 PM 51.1 °F - 10.9 °F 20% 30.24 in 10.0 mi WNW 15.0 mph - N/A   Clear
3:53 PM 52.0 °F - 9.0 °F 18% 30.22 in 10.0 mi WNW 11.5 mph - N/A   Clear
4:53 PM 52.0 °F - 8.1 °F 17% 30.20 in 10.0 mi WNW 10.4 mph - N/A   Clear
5:53 PM 51.1 °F - 8.1 °F 18% 30.20 in 10.0 mi NW 10.4 mph - N/A   Clear
6:53 PM 45.0 °F 41.8 °F 10.9 °F 25% 30.22 in 10.0 mi NW 5.8 mph - N/A   Clear
7:53 PM 39.0 °F 36.8 °F 12.0 °F 33% 30.24 in 10.0 mi NW 3.5 mph - N/A   Clear
8:53 PM 28.9 °F 23.9 °F 10.9 °F 47% 30.25 in 10.0 mi West 4.6 mph - N/A   Clear
9:53 PM 30.0 °F 24.1 °F 10.9 °F 45% 30.24 in 10.0 mi West 5.8 mph - N/A   Clear
10:53 PM 24.1 °F 16.0 °F 10.9 °F 57% 30.23 in 10.0 mi West 6.9 mph - N/A   Clear
11:53 PM 25.0 °F 15.5 °F 10.9 °F 55% 30.22 in 10.0 mi WSW 9.2 mph - N/A   Clear